EW1135 Weather Reports


Display with metric or nautical units.
time (UTC)temp
F
wind
direction
speed
MPH
gust
MPH
rain 1hr
in
rain 24hr
in
rain mn
in
humidity
%
barometer
mb
20260903061552 58 215 17.0 0.0 0.00 0.00 0.37 88 1008.3
20260903060051 58 228 21.0 0.0 0.00 0.00 0.37 88 1008.3
20260903054539 58 229 19.0 0.0 0.00 0.00 0.37 88 1008.4
20260903053038 58 213 18.0 0.0 0.00 0.00 0.37 88 1008.3
20260903051540 58 211 18.0 0.0 0.00 0.00 0.37 88 1008.3
20260903050038 58 221 14.0 0.0 0.00 0.00 0.37 88 1008.2
20260903044537 58 225 14.0 0.0 0.00 0.00 0.37 88 1008.4
20260903043037 58 221 14.0 0.0 0.00 0.00 0.37 88 1008.2
20260903041537 58 208 16.0 0.0 0.00 0.00 0.37 88 1008.1
20260903040041 58 194 16.0 0.0 0.00 0.00 0.37 88 1008.0
20260903034520 58 227 16.0 0.0 0.00 0.00 0.37 88 1007.8
20260903033031 58 227 17.0 0.0 0.00 0.00 0.37 88 1007.7
20260903031521 58 208 19.0 0.0 0.00 0.00 0.37 88 1007.7
20260903030022 58 240 19.0 0.0 0.00 0.00 0.37 88 1007.8
20260903024519 58 211 20.0 0.0 0.00 0.00 0.37 88 1007.5
20260903023020 58 227 18.0 0.0 0.00 0.00 0.37 88 1007.5
20260903021531 58 217 17.0 0.0 0.00 0.00 0.37 89 1007.4
20260903020018 58 213 16.0 0.0 0.00 0.00 0.37 89 1007.5
20260903014518 58 237 17.0 0.0 0.00 0.00 0.37 89 1007.5
20260903013018 58 229 15.0 0.0 0.00 0.00 0.37 89 1007.5
20260903011519 58 225 17.0 0.0 0.00 0.00 0.37 90 1007.5
20260903010019 58 229 17.0 0.0 0.00 0.00 0.37 90 1007.3
20260903004522 58 208 16.0 0.0 0.00 0.00 0.37 90 1007.3
20260903003018 58 219 14.0 0.0 0.00 0.00 0.37 90 1007.1
20260903001537 58 223 14.0 0.0 0.00 0.00 0.37 91 1007.0
20260903000035 58 234 13.0 0.0 0.00 0.00 0.37 90 1006.9
20260902234536 57 211 9.0 0.0 0.00 0.00 0.37 90 1006.7
20260902233034 58 206 3.0 0.0 0.00 0.00 0.37 90 1006.4
20260902231518 57 194 4.0 0.0 0.00 0.00 0.37 90 1006.2
20260902230017 57 196 4.0 0.0 0.00 0.00 0.37 90 1006.1
20260902224559 57 212 3.0 0.0 0.00 0.00 0.36 90 1006.1
20260902223115 57 234 3.0 0.0 0.00 0.00 0.36 90 1006.0
20260902221546 57 195 5.0 0.0 0.00 0.00 0.36 90 1005.8
20260902220045 56 185 5.0 0.0 0.00 0.00 0.36 90 1005.8
20260902214545 56 223 11.0 0.0 0.00 0.00 0.36 90 1005.8
20260902213043 56 221 16.0 0.0 0.00 0.00 0.35 90 1005.9
20260902211541 57 252 26.0 0.0 0.00 0.00 0.35 90 1005.7
20260902210052 57 242 27.0 0.0 0.00 0.00 0.34 90 1005.5
20260902204539 57 241 32.0 0.0 0.00 0.00 0.33 89 1005.1
20260902203038 57 236 31.0 0.0 0.00 0.00 0.32 89 1005.0
20260902201530 57 226 32.0 0.0 0.00 0.00 0.30 89 1005.0
20260902200032 57 243 33.0 0.0 0.00 0.00 0.28 88 1004.9
20260902194531 57 214 31.0 0.0 0.00 0.00 0.25 88 1004.7
20260902193019 57 223 28.0 0.0 0.00 0.00 0.25 88 1004.4
20260902191523 57 225 26.0 0.0 0.00 0.00 0.21 87 1004.2
20260902190022 58 230 25.0 0.0 0.00 0.00 0.19 87 1004.1
20260902184516 58 220 19.0 0.0 0.00 0.00 0.17 86 1004.0
20260902183013 58 216 19.0 0.0 0.00 0.00 0.14 86 1003.9
20260902181613 58 226 16.0 0.0 0.00 0.00 0.11 85 1003.5
20260902180059 58 231 17.0 0.0 0.00 0.00 0.08 84 1003.4
20260902174603 59 204 18.0 0.0 0.00 0.00 0.03 84 1003.2
20260902173057 59 225 16.0 0.0 0.00 0.00 0.00 83 1002.9
20260902171601 59 211 19.0 0.0 0.00 0.00 0.00 83 1002.7
20260902170056 59 227 18.0 0.0 0.00 0.00 0.00 83 1002.9
20260902164557 59 188 16.0 0.0 0.00 0.00 0.00 83 1002.8
20260902163058 59 181 17.0 0.0 0.00 0.00 0.00 83 1002.9
20260902161550 59 206 18.0 0.0 0.00 0.00 0.00 83 1003.2
20260902160036 59 166 15.0 0.0 0.00 0.00 0.00 82 1003.6
20260902154534 59 218 14.0 0.0 0.00 0.00 0.00 82 1004.0
20260902153031 59 211 12.0 0.0 0.00 0.00 0.00 82 1004.1
20260902151530 59 242 10.0 0.0 0.00 0.00 0.00 81 1004.3
20260902150029 60 220 15.0 0.0 0.00 0.00 0.00 80 1004.2
20260902144535 60 185 14.0 0.0 0.00 0.00 0.00 79 1004.6
20260902143027 61 206 13.0 0.0 0.00 0.00 0.00 78 1004.5
20260902141531 61 208 17.0 0.0 0.00 0.00 0.00 77 1004.2
20260902140013 61 222 18.0 0.0 0.00 0.00 0.00 77 1004.3
20260902134512 61 188 17.0 0.0 0.00 0.00 0.00 77 1004.5
20260902133010 61 225 18.0 0.0 0.00 0.00 0.00 78 1004.8
20260902131509 60 230 16.0 0.0 0.00 0.00 0.00 79 1005.0
20260902130007 60 222 20.0 0.0 0.00 0.00 0.00 80 1005.1
20260902124507 59 227 16.0 0.0 0.00 0.00 0.00 81 1005.3
20260902123004 59 213 14.0 0.0 0.00 0.00 0.00 82 1005.5
20260902121502 59 206 14.0 0.0 0.00 0.00 0.00 81 1006.0
20260902120049 60 231 18.0 0.0 0.00 0.00 0.00 80 1006.2
20260902114555 60 204 22.0 0.0 0.00 0.00 0.00 78 1006.2
20260902113047 62 198 20.0 0.0 0.00 0.00 0.00 77 1006.3
20260902111546 61 201 16.0 0.0 0.00 0.00 0.00 77 1006.4
20260902110045 62 227 14.0 0.0 0.00 0.00 0.00 77 1006.5
20260902104544 62 224 15.0 0.0 0.00 0.00 0.00 77 1006.8
20260902103042 62 238 16.0 0.0 0.00 0.00 0.00 78 1007.1
20260902101540 61 202 17.0 0.0 0.00 0.00 0.00 78 1007.2
20260902100026 61 218 17.0 0.0 0.00 0.00 0.00 79 1007.3
20260902094522 60 222 12.0 0.0 0.00 0.00 0.00 81 1007.6
20260902093020 60 214 14.0 0.0 0.00 0.00 0.00 83 1007.8
20260902091542 59 214 14.0 0.0 0.00 0.00 0.00 84 1008.1
20260902090015 59 232 18.0 0.0 0.00 0.00 0.00 85 1008.3
20260902084514 59 222 21.0 0.0 0.00 0.00 0.00 85 1008.7
20260902083012 59 229 20.0 0.0 0.00 0.00 0.00 85 1009.0
20260902081511 59 223 19.0 0.0 0.00 0.00 0.00 85 1009.2
20260902080105 59 227 22.0 0.0 0.00 0.00 0.00 85 1009.4
20260902074552 59 210 22.0 0.0 0.00 0.00 0.00 85 1009.3
20260902073038 59 226 21.0 0.0 0.00 0.00 0.00 85 1009.4
20260902071553 60 237 20.0 0.0 0.00 0.00 0.00 85 1009.4
20260902070032 59 212 16.0 0.0 0.00 0.00 0.01 85 1009.4
20260902064532 59 214 18.0 0.0 0.00 0.00 0.01 85 1009.5
20260902063039 59 229 19.0 0.0 0.00 0.00 0.01 85 1009.6